Regional Weather Roundup
Issued by NWS

Home | Current Version | Previous Version | Graphics & Text | Print | Product List | Glossary On
Versions: 1 2 3 4 5 6 7 8 9 10 11 12 13 14 15 16 17 18 19 20 21 22 23 24 25 26 27 28 29 30 31 32 33 34 35 36 37 38 39 40 41 42 43 44 45 46 47 48 49 50
000
ASUS45 KCYS 201210
RWRWY

WYOMING REGIONAL WEATHER ROUNDUP
NATIONAL WEATHER SERVICE CHEYENNE WY
500 AM MST SAT DEC 20 2014

NOTE:  "FAIR" INDICATES FEW OR NO CLOUDS BELOW 12,000 FEET
WITH NO SIGNIFICANT WEATHER AND/OR OBSTRUCTIONS TO VISIBILITY.

WYZ001-201300-
YELLOWSTONE NATIONAL PARK

CITY           SKY/WX    TMP DP  RH WIND       PRES   REMARKS
LK YELLOWSTONE   N/A     24  20  84 VRB6      30.01S WCI  17
6HR MIN TEMP:  24; 6HR MAX TEMP:  26; 6HR PCP:  0.01;

W YELLOWSTONE  NOT AVBL

$$
WYZ002>013-054>058-071-098>099-201300-
NORTHERN WYOMING

CITY           SKY/WX    TMP DP  RH WIND       PRES   REMARKS
JACKSON        CLOUDY    28  28 100 SW7       30.03F WCI  21
CODY           FAIR      41  21  45 W20G29    29.90S
GREYBULL       FAIR      13  11  92 CALM      29.97S
6HR MIN TEMP:  13; 6HR MAX TEMP:  20;

WORLAND        FAIR      10   7  87 SW5       29.96F WCI   2
6HR MIN TEMP:   8; 6HR MAX TEMP:  17;

SHERIDAN       FAIR      27  19  72 SW3       29.90S
6HR MIN TEMP:  25; 6HR MAX TEMP:  30;

BUFFALO        FAIR      32  20  61 W10       29.92R WCI  24
6HR MIN TEMP:  30; 6HR MAX TEMP:  39;

GILLETTE       CLOUDY    33  24  69 CALM      29.91S
6HR MIN TEMP:  32; 6HR MAX TEMP:  36;

HULETT           N/A    N/A N/A N/A MISG        N/A
NEWCASTLE      FAIR      27  21  80 N3        29.94R

$$
WYZ014>020-022>026-101>103-201300-
CENTRAL WYOMING

CITY           SKY/WX    TMP DP  RH WIND       PRES   REMARKS
BIG PINEY      CLOUDY    23  20  88 N3        30.06S
6HR MIN TEMP:  18; 6HR MAX TEMP:  24;

PINEDALE       CLOUDY    23  23 100 W3        30.06R
DUBOIS         NOT AVBL
LANDER         FAIR      11   7  84 NE3       29.95S
6HR MIN TEMP:   7; 6HR MAX TEMP:  21;

RIVERTON       FAIR       9   5  84 S5        29.96S WCI   1
6HR MIN TEMP:   7; 6HR MAX TEMP:  13;

CASPER         FAIR      30  23  75 SW18G24   29.97R WCI  18
6HR MIN TEMP:  29; 6HR MAX TEMP:  32;

DOUGLAS        FAIR      35  24  64 W12       29.94S WCI  27
6HR MIN TEMP:  21; 6HR MAX TEMP:  39;


$$
WYZ021-027>030-104>119-201300-
SOUTHERN WYOMING

CITY           SKY/WX    TMP DP  RH WIND       PRES   REMARKS
EVANSTON       CLOUDY    29  26  89 SW9       30.08S WCI  20
6HR MIN TEMP:  29; 6HR MAX TEMP:  30;

KEMMERER       CLOUDY    30  27  86 W6        30.07S WCI  24
FORT BRIDGER   CLOUDY    31  26  81 W7        30.10F WCI  25
ROCK SPRINGS   MOCLDY    28  21  75 SW13      30.06F WCI  17
6HR MIN TEMP:  25; 6HR MAX TEMP:  30;

DIXON          LGT SNOW  28  26  92 CALM      30.14S
RAWLINS        FAIR      28  21  75 SW13      30.04S WCI  17
6HR MIN TEMP:  26; 6HR MAX TEMP:  30;

SARATOGA       PTSUNNY   28  21  74 S5        30.05F WCI  23
LARAMIE        CLOUDY    29  18  63 SW21      29.98F WCI  16
6HR MIN TEMP:  20; 6HR MAX TEMP:  29;

CHEYENNE       FAIR      35  17  47 W22G33    29.94S WCI  23
6HR MIN TEMP:  26; 6HR MAX TEMP:  36;

TORRINGTON     CLOUDY   N/A N/A N/A E3        29.94S
PINE BLUFFS    FAIR      21  16  79 CALM      29.98S

$$


USA.gov is the U.S. government's official web portal to all federal, state and local government web resources and services.